Year,Month,Day,Hour,Minute,Value (Times are PST for insolation in W/m^2)
2019,10,03,00,00,0.00
2019,10,03,00,01,0.00
2019,10,03,00,02,0.00
2019,10,03,00,03,0.00
2019,10,03,00,04,0.00
2019,10,03,00,05,0.00
2019,10,03,00,06,0.00
2019,10,03,00,07,0.00
2019,10,03,00,08,0.00
2019,10,03,00,09,0.00
2019,10,03,00,10,0.00
2019,10,03,00,11,0.00
2019,10,03,00,12,0.00
2019,10,03,00,13,0.00
2019,10,03,00,14,0.00
2019,10,03,00,15,0.00
2019,10,03,00,16,0.00
2019,10,03,00,17,0.00
2019,10,03,00,18,0.00
2019,10,03,00,19,0.00
2019,10,03,00,20,0.00
2019,10,03,00,21,0.00
2019,10,03,00,22,0.00
2019,10,03,00,23,0.00
2019,10,03,00,24,0.00
2019,10,03,00,25,0.00
2019,10,03,00,26,0.00
2019,10,03,00,27,0.00
2019,10,03,00,28,0.00
2019,10,03,00,29,0.00
2019,10,03,00,30,0.00
2019,10,03,00,31,0.00
2019,10,03,00,32,0.00
2019,10,03,00,33,0.00
2019,10,03,00,34,0.00
2019,10,03,00,35,0.00
2019,10,03,00,36,0.00
2019,10,03,00,37,0.00
2019,10,03,00,38,0.00
2019,10,03,00,39,0.00
2019,10,03,00,40,0.00
2019,10,03,00,41,0.00
2019,10,03,00,42,0.00
2019,10,03,00,43,0.00
2019,10,03,00,44,0.00
2019,10,03,00,45,0.00
2019,10,03,00,46,0.00
2019,10,03,00,47,0.00
2019,10,03,00,48,0.00
2019,10,03,00,49,0.00
2019,10,03,00,50,0.00
2019,10,03,00,51,0.00
2019,10,03,00,52,0.00
2019,10,03,00,53,0.00
2019,10,03,00,54,0.00
2019,10,03,00,55,0.00
2019,10,03,00,56,0.00
2019,10,03,00,57,0.00
2019,10,03,00,58,0.00
2019,10,03,00,59,0.00
2019,10,03,01,00,0.00
2019,10,03,01,01,0.00
2019,10,03,01,02,0.00
2019,10,03,01,03,0.00
2019,10,03,01,04,0.00
2019,10,03,01,05,0.00
2019,10,03,01,06,0.00
2019,10,03,01,07,0.00
2019,10,03,01,08,0.00
2019,10,03,01,09,0.00
2019,10,03,01,10,0.00
2019,10,03,01,11,0.00
2019,10,03,01,12,0.00
2019,10,03,01,13,0.00
2019,10,03,01,14,0.00
2019,10,03,01,15,0.00
2019,10,03,01,16,0.00
2019,10,03,01,17,0.00
2019,10,03,01,18,0.00
2019,10,03,01,19,0.00
2019,10,03,01,20,0.00
2019,10,03,01,21,0.00
2019,10,03,01,22,0.00
2019,10,03,01,23,0.00
2019,10,03,01,24,0.00
2019,10,03,01,25,0.00
2019,10,03,01,26,0.00
2019,10,03,01,27,0.00
2019,10,03,01,28,0.00
2019,10,03,01,29,0.00
2019,10,03,01,30,0.00
2019,10,03,01,31,0.00
2019,10,03,01,32,0.00
2019,10,03,01,33,0.00
2019,10,03,01,34,0.00
2019,10,03,01,35,0.00
2019,10,03,01,36,0.00
2019,10,03,01,37,0.00
2019,10,03,01,38,0.00
2019,10,03,01,39,0.00
2019,10,03,01,40,0.00
2019,10,03,01,41,0.00
2019,10,03,01,42,0.00
2019,10,03,01,43,0.00
2019,10,03,01,44,0.00
2019,10,03,01,45,0.00
2019,10,03,01,46,0.00
2019,10,03,01,47,0.00
2019,10,03,01,48,0.00
2019,10,03,01,49,0.00
2019,10,03,01,50,0.00
2019,10,03,01,51,0.00
2019,10,03,01,52,0.00
2019,10,03,01,53,0.00
2019,10,03,01,54,0.00
2019,10,03,01,55,0.00
2019,10,03,01,56,0.00
2019,10,03,01,57,0.00
2019,10,03,01,58,0.00
2019,10,03,01,59,0.00
2019,10,03,02,00,0.00
2019,10,03,02,01,0.00
2019,10,03,02,02,0.00
2019,10,03,02,03,0.00
2019,10,03,02,04,0.00
2019,10,03,02,05,0.00
2019,10,03,02,06,0.00
2019,10,03,02,07,0.00
2019,10,03,02,08,0.00
2019,10,03,02,09,0.00
2019,10,03,02,10,0.00
2019,10,03,02,11,0.00
2019,10,03,02,12,0.00
2019,10,03,02,13,0.00
2019,10,03,02,14,0.00
2019,10,03,02,15,0.00
2019,10,03,02,16,0.00
2019,10,03,02,17,0.00
2019,10,03,02,18,0.00
2019,10,03,02,19,0.00
2019,10,03,02,20,0.00
2019,10,03,02,21,0.00
2019,10,03,02,22,0.00
2019,10,03,02,23,0.00
2019,10,03,02,24,0.00
2019,10,03,02,25,0.00
2019,10,03,02,26,0.00
2019,10,03,02,27,0.00
2019,10,03,02,28,0.00
2019,10,03,02,29,0.00
2019,10,03,02,30,0.00
2019,10,03,02,31,0.00
2019,10,03,02,32,0.00
2019,10,03,02,33,0.00
2019,10,03,02,34,0.00
2019,10,03,02,35,0.00
2019,10,03,02,36,0.00
2019,10,03,02,37,0.00
2019,10,03,02,38,0.00
2019,10,03,02,39,0.00
2019,10,03,02,40,0.00
2019,10,03,02,41,0.00
2019,10,03,02,42,0.00
2019,10,03,02,43,0.00
2019,10,03,02,44,0.00
2019,10,03,02,45,0.00
2019,10,03,02,46,0.00
2019,10,03,02,47,0.00
2019,10,03,02,48,0.00
2019,10,03,02,49,0.00
2019,10,03,02,50,0.00
2019,10,03,02,51,0.00
2019,10,03,02,52,0.00
2019,10,03,02,53,0.00
2019,10,03,02,54,0.00
2019,10,03,02,55,0.00
2019,10,03,02,56,0.00
2019,10,03,02,57,0.00
2019,10,03,02,58,0.00
2019,10,03,02,59,0.00
2019,10,03,03,00,0.00
2019,10,03,03,01,0.00
2019,10,03,03,02,0.00
2019,10,03,03,03,0.00
2019,10,03,03,04,0.00
2019,10,03,03,05,0.00
2019,10,03,03,06,0.00
2019,10,03,03,07,0.00
2019,10,03,03,08,0.00
2019,10,03,03,09,0.00
2019,10,03,03,10,0.00
2019,10,03,03,11,0.00
2019,10,03,03,12,0.00
2019,10,03,03,13,0.00
2019,10,03,03,14,0.00
2019,10,03,03,15,0.00
2019,10,03,03,16,0.00
2019,10,03,03,17,0.00
2019,10,03,03,18,0.00
2019,10,03,03,19,0.00
2019,10,03,03,20,0.00
2019,10,03,03,21,0.00
2019,10,03,03,22,0.00
2019,10,03,03,23,0.00
2019,10,03,03,24,0.00
2019,10,03,03,25,0.00
2019,10,03,03,26,0.00
2019,10,03,03,27,0.00
2019,10,03,03,28,0.00
2019,10,03,03,29,0.00
2019,10,03,03,30,0.00
2019,10,03,03,31,0.00
2019,10,03,03,32,0.00
2019,10,03,03,33,0.00
2019,10,03,03,34,0.00
2019,10,03,03,35,0.00
2019,10,03,03,36,0.00
2019,10,03,03,37,0.00
2019,10,03,03,38,0.00
2019,10,03,03,39,0.00
2019,10,03,03,40,0.00
2019,10,03,03,41,0.00
2019,10,03,03,42,0.00
2019,10,03,03,43,0.00
2019,10,03,03,44,0.00
2019,10,03,03,45,0.00
2019,10,03,03,46,0.00
2019,10,03,03,47,0.00
2019,10,03,03,48,0.00
2019,10,03,03,49,0.00
2019,10,03,03,50,0.00
2019,10,03,03,51,0.00
2019,10,03,03,52,0.00
2019,10,03,03,53,0.00
2019,10,03,03,54,0.00
2019,10,03,03,55,0.00
2019,10,03,03,56,0.00
2019,10,03,03,57,0.00
2019,10,03,03,58,0.00
2019,10,03,03,59,0.00
2019,10,03,04,00,0.00
2019,10,03,04,01,0.00
2019,10,03,04,02,0.00
2019,10,03,04,03,0.00
2019,10,03,04,04,0.00
2019,10,03,04,05,0.00
2019,10,03,04,06,0.00
2019,10,03,04,07,0.00
2019,10,03,04,08,0.00
2019,10,03,04,09,0.00
2019,10,03,04,10,0.00
2019,10,03,04,11,0.00
2019,10,03,04,12,0.00
2019,10,03,04,13,0.00
2019,10,03,04,14,0.00
2019,10,03,04,15,0.00
2019,10,03,04,16,0.00
2019,10,03,04,17,0.00
2019,10,03,04,18,0.00
2019,10,03,04,19,0.00
2019,10,03,04,20,0.00
2019,10,03,04,21,0.00
2019,10,03,04,22,0.00
2019,10,03,04,23,0.00
2019,10,03,04,24,0.00
2019,10,03,04,25,0.00
2019,10,03,04,26,0.00
2019,10,03,04,27,0.00
2019,10,03,04,28,0.00
2019,10,03,04,29,0.00
2019,10,03,04,30,0.00
2019,10,03,04,31,0.00
2019,10,03,04,32,0.00
2019,10,03,04,33,0.00
2019,10,03,04,34,0.00
2019,10,03,04,35,0.00
2019,10,03,04,36,0.00
2019,10,03,04,37,0.00
2019,10,03,04,38,0.00
2019,10,03,04,39,0.00
2019,10,03,04,40,0.00
2019,10,03,04,41,0.00
2019,10,03,04,42,0.00
2019,10,03,04,43,0.00
2019,10,03,04,44,0.00
2019,10,03,04,45,0.00
2019,10,03,04,46,0.00
2019,10,03,04,47,0.00
2019,10,03,04,48,0.00
2019,10,03,04,49,0.00
2019,10,03,04,50,0.00
2019,10,03,04,51,0.00
2019,10,03,04,52,0.00
2019,10,03,04,53,0.00
2019,10,03,04,54,0.00
2019,10,03,04,55,0.00
2019,10,03,04,56,0.00
2019,10,03,04,57,0.00
2019,10,03,04,58,0.00
2019,10,03,04,59,0.00
2019,10,03,05,00,0.00
2019,10,03,05,01,0.00
2019,10,03,05,02,0.00
2019,10,03,05,03,0.00
2019,10,03,05,04,0.00
2019,10,03,05,05,0.00
2019,10,03,05,06,0.00
2019,10,03,05,07,0.00
2019,10,03,05,08,0.00
2019,10,03,05,09,0.00
2019,10,03,05,10,0.00
2019,10,03,05,11,0.00
2019,10,03,05,12,0.00
2019,10,03,05,13,0.00
2019,10,03,05,14,0.00
2019,10,03,05,15,0.00
2019,10,03,05,16,0.00
2019,10,03,05,17,0.00
2019,10,03,05,18,0.00
2019,10,03,05,19,0.00
2019,10,03,05,20,0.00
2019,10,03,05,21,0.00
2019,10,03,05,22,0.00
2019,10,03,05,23,0.00
2019,10,03,05,24,0.00
2019,10,03,05,25,0.00
2019,10,03,05,26,0.00
2019,10,03,05,27,0.00
2019,10,03,05,28,0.00
2019,10,03,05,29,0.00
2019,10,03,05,30,0.00
2019,10,03,05,31,0.00
2019,10,03,05,32,0.00
2019,10,03,05,33,0.00
2019,10,03,05,34,0.00
2019,10,03,05,35,0.00
2019,10,03,05,36,0.00
2019,10,03,05,37,0.00
2019,10,03,05,38,0.00
2019,10,03,05,39,0.00
2019,10,03,05,40,0.00
2019,10,03,05,41,0.00
2019,10,03,05,42,0.00
2019,10,03,05,43,0.00
2019,10,03,05,44,0.00
2019,10,03,05,45,0.00
2019,10,03,05,46,0.00
2019,10,03,05,47,0.00
2019,10,03,05,48,0.00
2019,10,03,05,49,0.00
2019,10,03,05,50,0.00
2019,10,03,05,51,0.00
2019,10,03,05,52,0.00
2019,10,03,05,53,0.00
2019,10,03,05,54,0.00
2019,10,03,05,55,0.00
2019,10,03,05,56,0.00
2019,10,03,05,57,0.00
2019,10,03,05,58,0.00
2019,10,03,05,59,0.00
2019,10,03,06,00,0.00
2019,10,03,06,01,0.00
2019,10,03,06,02,0.00
2019,10,03,06,03,0.00
2019,10,03,06,04,0.00
2019,10,03,06,05,0.00
2019,10,03,06,06,0.00
2019,10,03,06,07,0.00
2019,10,03,06,08,0.00
2019,10,03,06,09,0.00
2019,10,03,06,10,0.00
2019,10,03,06,11,0.00
2019,10,03,06,12,0.00
2019,10,03,06,13,0.00
2019,10,03,06,14,0.00
2019,10,03,06,15,0.00
2019,10,03,06,16,0.00
2019,10,03,06,17,0.00
2019,10,03,06,18,0.00
2019,10,03,06,19,0.00
2019,10,03,06,20,0.00
2019,10,03,06,21,0.00
2019,10,03,06,22,0.00
2019,10,03,06,23,0.00
2019,10,03,06,24,0.00
2019,10,03,06,25,0.00
2019,10,03,06,26,0.00
2019,10,03,06,27,0.00
2019,10,03,06,28,0.00
2019,10,03,06,29,0.00
2019,10,03,06,30,0.00
2019,10,03,06,31,0.00
2019,10,03,06,32,0.00
2019,10,03,06,33,0.00
2019,10,03,06,34,0.00
2019,10,03,06,35,0.00
2019,10,03,06,36,0.00
2019,10,03,06,37,0.00
2019,10,03,06,38,0.00
2019,10,03,06,39,0.00
2019,10,03,06,40,0.00
2019,10,03,06,41,0.00
2019,10,03,06,42,0.00
2019,10,03,06,43,0.00
2019,10,03,06,44,0.00
2019,10,03,06,45,0.00
2019,10,03,06,46,0.00
2019,10,03,06,47,0.00
2019,10,03,06,48,0.00
2019,10,03,06,49,0.00
2019,10,03,06,50,0.00
2019,10,03,06,51,0.00
2019,10,03,06,52,0.00
2019,10,03,06,53,0.00
2019,10,03,06,54,0.00
2019,10,03,06,55,0.00
2019,10,03,06,56,0.00
2019,10,03,06,57,0.00
2019,10,03,06,58,0.00
2019,10,03,06,59,0.00
2019,10,03,07,00,0.00
2019,10,03,07,01,0.00
2019,10,03,07,02,0.00
2019,10,03,07,03,0.00
2019,10,03,07,04,0.00
2019,10,03,07,05,0.00
2019,10,03,07,06,0.00
2019,10,03,07,07,0.00
2019,10,03,07,08,0.00
2019,10,03,07,09,0.00
2019,10,03,07,10,0.00
2019,10,03,07,11,0.00
2019,10,03,07,12,0.00
2019,10,03,07,13,0.00
2019,10,03,07,14,0.00
2019,10,03,07,15,0.00
2019,10,03,07,16,0.00
2019,10,03,07,17,0.00
2019,10,03,07,18,0.00
2019,10,03,07,19,0.00
2019,10,03,07,20,0.00
2019,10,03,07,21,0.00
2019,10,03,07,22,0.00
2019,10,03,07,23,0.00
2019,10,03,07,24,0.00
2019,10,03,07,25,0.00
2019,10,03,07,26,0.00
2019,10,03,07,27,0.00
2019,10,03,07,28,0.00
2019,10,03,07,29,0.00
2019,10,03,07,30,0.00
2019,10,03,07,31,0.00
2019,10,03,07,32,0.00
2019,10,03,07,33,0.00
2019,10,03,07,34,0.00
2019,10,03,07,35,0.00
2019,10,03,07,36,0.00
2019,10,03,07,37,0.00
2019,10,03,07,38,0.00
2019,10,03,07,39,0.00
2019,10,03,07,40,0.00
2019,10,03,07,41,0.00
2019,10,03,07,42,0.00
2019,10,03,07,43,0.00
2019,10,03,07,44,0.00
2019,10,03,07,45,0.00
2019,10,03,07,46,3.60
2019,10,03,07,47,5.00
2019,10,03,07,48,5.00
2019,10,03,07,49,5.50
2019,10,03,07,50,7.00
2019,10,03,07,51,7.00
2019,10,03,07,52,7.00
2019,10,03,07,53,8.40
2019,10,03,07,54,9.00
2019,10,03,07,55,11.00
2019,10,03,07,56,12.00
2019,10,03,07,57,12.00
2019,10,03,07,58,12.00
2019,10,03,07,59,12.00
2019,10,03,08,00,11.30
2019,10,03,08,01,11.80
2019,10,03,08,02,13.80
2019,10,03,08,03,14.40
2019,10,03,08,04,16.00
2019,10,03,08,05,16.90
2019,10,03,08,06,18.00
2019,10,03,08,07,18.00
2019,10,03,08,08,18.80
2019,10,03,08,09,19.20
2019,10,03,08,10,21.00
2019,10,03,08,11,21.00
2019,10,03,08,12,21.00
2019,10,03,08,13,22.20
2019,10,03,08,14,23.00
2019,10,03,08,15,24.60
2019,10,03,08,16,25.00
2019,10,03,08,17,24.50
2019,10,03,08,18,23.00
2019,10,03,08,19,22.10
2019,10,03,08,20,19.80
2019,10,03,08,21,19.00
2019,10,03,08,22,19.00
2019,10,03,08,23,18.00
2019,10,03,08,24,17.60
2019,10,03,08,25,15.30
2019,10,03,08,26,14.00
2019,10,03,08,27,14.00
2019,10,03,08,28,15.40
2019,10,03,08,29,16.00
2019,10,03,08,30,17.90
2019,10,03,08,31,18.20
2019,10,03,08,32,19.00
2019,10,03,08,33,19.90
2019,10,03,08,34,22.20
2019,10,03,08,35,23.00
2019,10,03,08,36,24.70
2019,10,03,08,37,27.90
2019,10,03,08,38,30.50
2019,10,03,08,39,32.30
2019,10,03,08,40,33.00
2019,10,03,08,41,33.00
2019,10,03,08,42,33.00
2019,10,03,08,43,33.00
2019,10,03,08,44,33.00
2019,10,03,08,45,33.00
2019,10,03,08,46,33.70
2019,10,03,08,47,35.00
2019,10,03,08,48,35.00
2019,10,03,08,49,33.60
2019,10,03,08,50,32.20
2019,10,03,08,51,28.20
2019,10,03,08,52,25.80
2019,10,03,08,53,25.00
2019,10,03,08,54,25.00
2019,10,03,08,55,25.00
2019,10,03,08,56,25.00
2019,10,03,08,57,27.40
2019,10,03,08,58,30.20
2019,10,03,08,59,34.40
2019,10,03,09,00,40.60
2019,10,03,09,01,45.40
2019,10,03,09,02,50.60
2019,10,03,09,03,55.10
2019,10,03,09,04,57.60
2019,10,03,09,05,58.20
2019,10,03,09,06,60.00
2019,10,03,09,07,59.40
2019,10,03,09,08,58.00
2019,10,03,09,09,58.00
2019,10,03,09,10,56.50
2019,10,03,09,11,54.30
2019,10,03,09,12,52.80
2019,10,03,09,13,48.40
2019,10,03,09,14,44.60
2019,10,03,09,15,40.60
2019,10,03,09,16,37.80
2019,10,03,09,17,35.60
2019,10,03,09,18,35.00
2019,10,03,09,19,35.00
2019,10,03,09,20,35.00
2019,10,03,09,21,35.00
2019,10,03,09,22,35.00
2019,10,03,09,23,36.20
2019,10,03,09,24,37.00
2019,10,03,09,25,37.00
2019,10,03,09,26,34.90
2019,10,03,09,27,33.00
2019,10,03,09,28,33.00
2019,10,03,09,29,33.80
2019,10,03,09,30,36.20
2019,10,03,09,31,39.10
2019,10,03,09,32,41.70
2019,10,03,09,33,42.00
2019,10,03,09,34,41.60
2019,10,03,09,35,40.00
2019,10,03,09,36,40.90
2019,10,03,09,37,42.00
2019,10,03,09,38,43.40
2019,10,03,09,39,45.70
2019,10,03,09,40,47.10
2019,10,03,09,41,49.00
2019,10,03,09,42,49.00
2019,10,03,09,43,48.10
2019,10,03,09,44,46.40
2019,10,03,09,45,43.10
2019,10,03,09,46,39.60
2019,10,03,09,47,39.00
2019,10,03,09,48,39.00
2019,10,03,09,49,39.30
2019,10,03,09,50,40.90
2019,10,03,09,51,42.00
2019,10,03,09,52,43.40
2019,10,03,09,53,44.00
2019,10,03,09,54,46.20
2019,10,03,09,55,49.00
2019,10,03,09,56,50.20
2019,10,03,09,57,53.50
2019,10,03,09,58,55.10
2019,10,03,09,59,57.40
2019,10,03,10,00,59.60
2019,10,03,10,01,62.00
2019,10,03,10,02,63.40
2019,10,03,10,03,66.40
2019,10,03,10,04,69.50
2019,10,03,10,05,71.20
2019,10,03,10,06,72.00
2019,10,03,10,07,72.00
2019,10,03,10,08,70.10
2019,10,03,10,09,70.40
2019,10,03,10,10,72.70
2019,10,03,10,11,74.00
2019,10,03,10,12,75.10
2019,10,03,10,13,78.10
2019,10,03,10,14,82.20
2019,10,03,10,15,84.00
2019,10,03,10,16,83.40
2019,10,03,10,17,80.30
2019,10,03,10,18,79.90
2019,10,03,10,19,79.80
2019,10,03,10,20,77.60
2019,10,03,10,21,77.00
2019,10,03,10,22,77.00
2019,10,03,10,23,76.40
2019,10,03,10,24,74.00
2019,10,03,10,25,74.90
2019,10,03,10,26,76.60
2019,10,03,10,27,78.40
2019,10,03,10,28,79.00
2019,10,03,10,29,79.20
2019,10,03,10,30,82.00
2019,10,03,10,31,89.80
2019,10,03,10,32,99.20
2019,10,03,10,33,111.20
2019,10,03,10,34,119.40
2019,10,03,10,35,125.90
2019,10,03,10,36,141.40
2019,10,03,10,37,146.30
2019,10,03,10,38,133.30
2019,10,03,10,39,125.40
2019,10,03,10,40,118.80
2019,10,03,10,41,118.00
2019,10,03,10,42,122.20
2019,10,03,10,43,114.30
2019,10,03,10,44,112.60
2019,10,03,10,45,109.20
2019,10,03,10,46,105.00
2019,10,03,10,47,105.00
2019,10,03,10,48,95.30
2019,10,03,10,49,82.90
2019,10,03,10,50,69.30
2019,10,03,10,51,66.20
2019,10,03,10,52,63.00
2019,10,03,10,53,63.00
2019,10,03,10,54,62.40
2019,10,03,10,55,62.00
2019,10,03,10,56,62.00
2019,10,03,10,57,63.00
2019,10,03,10,58,63.50
2019,10,03,10,59,65.60
2019,10,03,11,00,69.30
2019,10,03,11,01,78.30
2019,10,03,11,02,93.80
2019,10,03,11,03,110.10
2019,10,03,11,04,125.30
2019,10,03,11,05,138.70
2019,10,03,11,06,151.00
2019,10,03,11,07,153.30
2019,10,03,11,08,152.00
2019,10,03,11,09,146.80
2019,10,03,11,10,144.30
2019,10,03,11,11,143.20
2019,10,03,11,12,134.20
2019,10,03,11,13,157.10
2019,10,03,11,14,204.00
2019,10,03,11,15,269.80
2019,10,03,11,16,367.80
2019,10,03,11,17,434.80
2019,10,03,11,18,439.90
2019,10,03,11,19,388.20
2019,10,03,11,20,322.00
2019,10,03,11,21,233.60
2019,10,03,11,22,123.30
2019,10,03,11,23,133.30
2019,10,03,11,24,140.40
2019,10,03,11,25,207.40
2019,10,03,11,26,134.40
2019,10,03,11,27,133.00
2019,10,03,11,28,135.90
2019,10,03,11,29,152.60
2019,10,03,11,30,162.30
2019,10,03,11,31,162.00
2019,10,03,11,32,170.90
2019,10,03,11,33,173.00
2019,10,03,11,34,169.60
2019,10,03,11,35,171.00
2019,10,03,11,36,162.00
2019,10,03,11,37,142.50
2019,10,03,11,38,125.20
2019,10,03,11,39,121.60
2019,10,03,11,40,144.40
2019,10,03,11,41,162.80
2019,10,03,11,42,157.20
2019,10,03,11,43,164.00
2019,10,03,11,44,165.60
2019,10,03,11,45,163.30
2019,10,03,11,46,162.10
2019,10,03,11,47,161.60
2019,10,03,11,48,158.30
2019,10,03,11,49,153.20
2019,10,03,11,50,148.10
2019,10,03,11,51,149.50
2019,10,03,11,52,139.20
2019,10,03,11,53,134.10
2019,10,03,11,54,136.30
2019,10,03,11,55,148.20
2019,10,03,11,56,154.40
2019,10,03,11,57,168.70
2019,10,03,11,58,195.30
2019,10,03,11,59,194.70
2019,10,03,12,00,205.90
2019,10,03,12,01,206.40
2019,10,03,12,02,206.80
2019,10,03,12,03,212.10
2019,10,03,12,04,216.20
2019,10,03,12,05,227.20
2019,10,03,12,06,227.60
2019,10,03,12,07,208.40
2019,10,03,12,08,195.20
2019,10,03,12,09,208.20
2019,10,03,12,10,216.20
2019,10,03,12,11,207.40
2019,10,03,12,12,212.20
2019,10,03,12,13,225.30
2019,10,03,12,14,199.40
2019,10,03,12,15,176.30
2019,10,03,12,16,168.80
2019,10,03,12,17,160.60
2019,10,03,12,18,153.10
2019,10,03,12,19,160.60
2019,10,03,12,20,144.90
2019,10,03,12,21,139.70
2019,10,03,12,22,121.60
2019,10,03,12,23,117.20
2019,10,03,12,24,122.30
2019,10,03,12,25,170.60
2019,10,03,12,26,195.40
2019,10,03,12,27,251.00
2019,10,03,12,28,263.00
2019,10,03,12,29,216.00
2019,10,03,12,30,259.30
2019,10,03,12,31,341.00
2019,10,03,12,32,225.60
2019,10,03,12,33,107.80
2019,10,03,12,34,93.00
2019,10,03,12,35,93.20
2019,10,03,12,36,95.40
2019,10,03,12,37,99.50
2019,10,03,12,38,111.90
2019,10,03,12,39,131.00
2019,10,03,12,40,150.10
2019,10,03,12,41,155.80
2019,10,03,12,42,170.10
2019,10,03,12,43,218.00
2019,10,03,12,44,218.00
2019,10,03,12,45,222.00
2019,10,03,12,46,252.40
2019,10,03,12,47,271.00
2019,10,03,12,48,604.50
2019,10,03,12,49,668.00
2019,10,03,12,50,668.00
2019,10,03,12,51,668.00
2019,10,03,12,52,668.00
2019,10,03,12,53,668.00
2019,10,03,12,54,322.50
2019,10,03,12,55,164.00
2019,10,03,12,56,170.00
2019,10,03,12,57,160.00
2019,10,03,12,58,198.00
2019,10,03,12,59,259.50
2019,10,03,13,00,297.00
2019,10,03,13,01,512.30
2019,10,03,13,02,586.30
2019,10,03,13,03,533.60
2019,10,03,13,04,562.00
2019,10,03,13,05,566.00
2019,10,03,13,06,566.00
2019,10,03,13,07,566.00
2019,10,03,13,08,566.00
2019,10,03,13,09,586.20
2019,10,03,13,10,557.30
2019,10,03,13,11,159.40
2019,10,03,13,12,191.80
2019,10,03,13,13,195.00
2019,10,03,13,14,170.90
2019,10,03,13,15,173.40
2019,10,03,13,16,214.30
2019,10,03,13,17,199.30
2019,10,03,13,18,177.60
2019,10,03,13,19,172.60
2019,10,03,13,20,156.90
2019,10,03,13,21,131.80
2019,10,03,13,22,129.40
2019,10,03,13,23,128.40
2019,10,03,13,24,156.00
2019,10,03,13,25,148.00
2019,10,03,13,26,149.60
2019,10,03,13,27,150.00
2019,10,03,13,28,133.90
2019,10,03,13,29,140.90
2019,10,03,13,30,138.80
2019,10,03,13,31,142.50
2019,10,03,13,32,123.20
2019,10,03,13,33,109.20
2019,10,03,13,34,120.80
2019,10,03,13,35,123.10
2019,10,03,13,36,111.50
2019,10,03,13,37,92.90
2019,10,03,13,38,88.30
2019,10,03,13,39,92.20
2019,10,03,13,40,99.40
2019,10,03,13,41,105.30
2019,10,03,13,42,108.20
2019,10,03,13,43,106.20
2019,10,03,13,44,100.80
2019,10,03,13,45,102.00
2019,10,03,13,46,104.60
2019,10,03,13,47,109.20
2019,10,03,13,48,116.50
2019,10,03,13,49,122.90
2019,10,03,13,50,128.50
2019,10,03,13,51,141.80
2019,10,03,13,52,132.80
2019,10,03,13,53,128.10
2019,10,03,13,54,117.80
2019,10,03,13,55,109.60
2019,10,03,13,56,101.00
2019,10,03,13,57,95.90
2019,10,03,13,58,96.70
2019,10,03,13,59,100.50
2019,10,03,14,00,110.30
2019,10,03,14,01,118.40
2019,10,03,14,02,129.20
2019,10,03,14,03,149.10
2019,10,03,14,04,176.00
2019,10,03,14,05,201.60
2019,10,03,14,06,209.20
2019,10,03,14,07,211.30
2019,10,03,14,08,199.50
2019,10,03,14,09,187.00
2019,10,03,14,10,180.10
2019,10,03,14,11,170.40
2019,10,03,14,12,157.80
2019,10,03,14,13,148.60
2019,10,03,14,14,147.20
2019,10,03,14,15,142.40
2019,10,03,14,16,140.30
2019,10,03,14,17,147.20
2019,10,03,14,18,152.40
2019,10,03,14,19,149.60
2019,10,03,14,20,148.30
2019,10,03,14,21,152.70
2019,10,03,14,22,165.80
2019,10,03,14,23,180.10
2019,10,03,14,24,180.10
2019,10,03,14,25,175.20
2019,10,03,14,26,177.40
2019,10,03,14,27,179.00
2019,10,03,14,28,178.80
2019,10,03,14,29,177.30
2019,10,03,14,30,173.80
2019,10,03,14,31,168.70
2019,10,03,14,32,165.60
2019,10,03,14,33,159.30
2019,10,03,14,34,155.80
2019,10,03,14,35,152.60
2019,10,03,14,36,150.40
2019,10,03,14,37,147.60
2019,10,03,14,38,146.00
2019,10,03,14,39,146.00
2019,10,03,14,40,148.40
2019,10,03,14,41,156.30
2019,10,03,14,42,165.10
2019,10,03,14,43,175.50
2019,10,03,14,44,187.20
2019,10,03,14,45,194.90
2019,10,03,14,46,202.00
2019,10,03,14,47,206.40
2019,10,03,14,48,210.80
2019,10,03,14,49,211.00
2019,10,03,14,50,209.80
2019,10,03,14,51,203.80
2019,10,03,14,52,194.40
2019,10,03,14,53,183.80
2019,10,03,14,54,175.30
2019,10,03,14,55,166.70
2019,10,03,14,56,157.90
2019,10,03,14,57,150.40
2019,10,03,14,58,145.80
2019,10,03,14,59,140.30
2019,10,03,15,00,131.10
2019,10,03,15,01,114.30
2019,10,03,15,02,107.70
2019,10,03,15,03,111.30
2019,10,03,15,04,101.70
2019,10,03,15,05,110.70
2019,10,03,15,06,108.80
2019,10,03,15,07,94.40
2019,10,03,15,08,88.50
2019,10,03,15,09,95.10
2019,10,03,15,10,80.60
2019,10,03,15,11,78.40
2019,10,03,15,12,77.00
2019,10,03,15,13,79.40
2019,10,03,15,14,95.50
2019,10,03,15,15,111.70
2019,10,03,15,16,100.50
2019,10,03,15,17,81.60
2019,10,03,15,18,107.10
2019,10,03,15,19,109.20
2019,10,03,15,20,80.10
2019,10,03,15,21,61.70
2019,10,03,15,22,59.60
2019,10,03,15,23,59.80
2019,10,03,15,24,58.50
2019,10,03,15,25,60.00
2019,10,03,15,26,59.20
2019,10,03,15,27,59.20
2019,10,03,15,28,65.00
2019,10,03,15,29,63.60
2019,10,03,15,30,60.30
2019,10,03,15,31,60.40
2019,10,03,15,32,55.80
2019,10,03,15,33,59.10
2019,10,03,15,34,59.20
2019,10,03,15,35,63.60
2019,10,03,15,36,63.30
2019,10,03,15,37,65.00
2019,10,03,15,38,66.60
2019,10,03,15,39,65.70
2019,10,03,15,40,67.90
2019,10,03,15,41,62.70
2019,10,03,15,42,58.00
2019,10,03,15,43,61.20
2019,10,03,15,44,69.90
2019,10,03,15,45,77.80
2019,10,03,15,46,81.00
2019,10,03,15,47,80.10
2019,10,03,15,48,77.30
2019,10,03,15,49,74.60
2019,10,03,15,50,70.80
2019,10,03,15,51,69.10
2019,10,03,15,52,70.00
2019,10,03,15,53,70.00
2019,10,03,15,54,70.90
2019,10,03,15,55,72.00
2019,10,03,15,56,70.60
2019,10,03,15,57,66.00
2019,10,03,15,58,62.10
2019,10,03,15,59,62.00
2019,10,03,16,00,62.00
2019,10,03,16,01,62.00
2019,10,03,16,02,62.60
2019,10,03,16,03,63.00
2019,10,03,16,04,63.00
2019,10,03,16,05,60.50
2019,10,03,16,06,65.50
2019,10,03,16,07,67.00
2019,10,03,16,08,67.00
2019,10,03,16,09,67.00
2019,10,03,16,10,65.60
2019,10,03,16,11,66.60
2019,10,03,16,12,67.00
2019,10,03,16,13,67.00
2019,10,03,16,14,67.00
2019,10,03,16,15,67.00
2019,10,03,16,16,67.00
2019,10,03,16,17,67.00
2019,10,03,16,18,67.00
2019,10,03,16,19,66.80
2019,10,03,16,20,64.40
2019,10,03,16,21,62.30
2019,10,03,16,22,62.60
2019,10,03,16,23,59.70
2019,10,03,16,24,59.40
2019,10,03,16,25,58.30
2019,10,03,16,26,60.00
2019,10,03,16,27,62.20
2019,10,03,16,28,63.00
2019,10,03,16,29,63.00
2019,10,03,16,30,63.00
2019,10,03,16,31,63.00
2019,10,03,16,32,64.60
2019,10,03,16,33,65.20
2019,10,03,16,34,67.00
2019,10,03,16,35,67.70
2019,10,03,16,36,69.00
2019,10,03,16,37,69.00
2019,10,03,16,38,69.00
2019,10,03,16,39,69.80
2019,10,03,16,40,71.80
2019,10,03,16,41,70.40
2019,10,03,16,42,71.40
2019,10,03,16,43,70.00
2019,10,03,16,44,70.00
2019,10,03,16,45,71.40
2019,10,03,16,46,72.00
2019,10,03,16,47,72.00
2019,10,03,16,48,72.00
2019,10,03,16,49,72.00
2019,10,03,16,50,70.60
2019,10,03,16,51,67.80
2019,10,03,16,52,64.10
2019,10,03,16,53,66.20
2019,10,03,16,54,65.00
2019,10,03,16,55,63.00
2019,10,03,16,56,63.00
2019,10,03,16,57,63.00
2019,10,03,16,58,64.20
2019,10,03,16,59,66.40
2019,10,03,17,00,67.00
2019,10,03,17,01,67.00
2019,10,03,17,02,66.60
2019,10,03,17,03,65.00
2019,10,03,17,04,65.00
2019,10,03,17,05,65.00
2019,10,03,17,06,63.60
2019,10,03,17,07,63.00
2019,10,03,17,08,61.80
2019,10,03,17,09,56.70
2019,10,03,17,10,50.40
2019,10,03,17,11,48.10
2019,10,03,17,12,49.20
2019,10,03,17,13,49.60
2019,10,03,17,14,50.60
2019,10,03,17,15,51.00
2019,10,03,17,16,50.20
2019,10,03,17,17,46.70
2019,10,03,17,18,45.20
2019,10,03,17,19,42.80
2019,10,03,17,20,42.00
2019,10,03,17,21,43.60
2019,10,03,17,22,44.20
2019,10,03,17,23,47.40
2019,10,03,17,24,50.60
2019,10,03,17,25,54.80
2019,10,03,17,26,56.00
2019,10,03,17,27,54.60
2019,10,03,17,28,53.20